THORAD DELTA 1 DEB, 8556

Orbit data source: Space-Track

THORAD DELTA 1 DEB, 8556 is space debris in SSO originally from a launch on Fri, 15 Nov 1974 UTC launched from the Air Force Western Test Range (AFWTR). Debris objects in space refer to the collection of defunct objects orbiting the Earth. Examples of debris include non-operational satellites, rocket bodies, and fragments generated from explosions, collisions, or faulty payload assembly.

Loading next visibility...
Identifier
8556, 1974-089CT
Orbit
SSO
Country
Flag of USUS
Related business
Manufacturer
Unknown
Mission
Spacecraft
Bus & Motor
Unknown
Mass
Unknown
Launch date (UTC)
1974-11-15 (51 years ago)
Launch vehicle
Unknown
Launch site
Air Force Western Test Range (AFWTR)
Object type
Payload
Rocket body
Debris
Shape & HBR
Unknown shape, 0.1 m
Radar Cross Section
Small (<0.1 m²)

Expand to show TLE details & history
Last TLE update: 15 hours ago

TLE from 15 hours ago
0 THORAD DELTA 1 DEB
1  8556U 74089CT  25300.35072618  .00000099  00000-0  88155-3 0  9992
2  8556 101.3109  83.2670 0081128 264.1876 123.9754 12.53462065327794
Epoch: 2025-10-27T08:25Z
TLE epoch observation values (Epoch: 2025-10-27T08:25:02.741Z)
Latitude
28.3584°
Longitude
-85.11563°
Altitude
1,489.122 km
Speed
7.105 km/s
True Right ascension
05h 08m 23s
True Declination
28° 13' 42"
Sunlit
Object was in full shadow at epoch
Visualization orbit readout
Latitude
Unknown
Longitude
Unknown
Altitude
Unknown
Speed
Unknown
Apparent Right ascension
Unknown
Apparent Declination
Unknown
Sunlit
N/A
Visualization observer readout
Local Sidereal Time
19:07:19
Azimuth
Unknown
Elevation
Unknown
Doppler factor
Unknown
Orbital elements
Apogee altitude
1,511.052 km
Perigee altitude
1,384.076 km
Semi-major axis
7,825.701 km
Eccentricity
0.00811
Inclination
101.3109°
RAAN
83.267°
Arg. of periapsis
264.1876°
True anomaly
124.74198°
Mean anomaly
123.9754°
Eccentric anomaly
124.35912°
Mean motion
3.13515 °/min
Orbital period
114.83 mins
BSTAR
0.00088155
Loading maneuver chart data...
Computing Atmospheric mass density...

Documentation

Showing up to 5 results
|